Location: Milton Keynes
(52.0316°N, 0.7531°W)
Time: 05:34:55
(UTC+01:00)

N. Korean satellite - Pass Details

Date: 24 January 2019
Orbit: 457 x 508 km, 97.2° (Epoch: 18 April)

Event Time Altitude Azimuth Distance (km) Brightness Sun altitude
Rises 06:20:08 0° 14° (NNE) 2,628 10.3 -14.3°
Reaches altitude 10° 06:22:16 10° 17° (NNE) 1,733 9.4 -14.0°
Maximum altitude 06:25:59 71° 101° (ESE) 537 6.9 -13.4°
Drops below altitude 10° 06:29:38 10° 187° (S) 1,694 9.4 -12.9°
Sets 06:31:42 0° 189° (S) 2,564 10.3 -12.6°
